Weather History for Molokai, HI

Change the Weather History Date:

Thursday, January 24, 2013

  Actual Average Record
Temperature  
Mean Temperature 72 °F -  
Max Temperature 77 °F 77 °F 83 °F (1981)
Min Temperature 66 °F 62 °F 55 °F (2014)
Cooling Degree Days 6    
Growing Degree Days 22 (Base 50)    
Moisture  
Dew Point 63 °F    
Average Humidity 71    
Maximum Humidity 84    
Minimum Humidity 58    
Precipitation  
Precipitation 0.00 in - - ()
Sea Level Pressure  
Sea Level Pressure 30.06 in    
Wind  
Wind Speed 7 mph (NNE)    
Max Wind Speed 12 mph    
Max Gust Speed 20 mph    
Visibility 10 miles    
Events Rain    
Averages and records for this station are not official NWS values.
T = Trace of Precipitation, MM = Missing Value Source: NWS Daily Summary

Daily Weather History Graph

Daily Weather History Graph

Search for Another Location

Airport:

Trip Planner

Search our weather history database for the weather conditions in past years. The results will help you decide how hot, cold, wet, or windy it might be!

Date:

Astronomy

Jan. 24, 2013 Rise Set
Actual Time 7:07 AM HST 6:13 PM HST
Civil Twilight 6:44 AM HST 6:37 PM HST
Nautical Twilight 6:17 AM HST 7:04 PM HST
Astronomical Twilight 5:50 AM HST 7:30 PM HST
Moon 4:29 PM HST (1/24) 5:09 AM HST (1/24)
Length of Visible Light 11h 53m
Length of Day
11h 06m
Waxing Gibbous, 95% of the Moon is Illuminated
Jan 24
Waxing Gibbous
Jan 26
Full
Feb 3
Last Quarter
Feb 9
New
Feb 17
First Quarter

Hourly Weather History & Observations

Time (HST) Temp. Dew Point Humidity Pressure Visibility Wind Dir Wind Speed Gust Speed Precip Events Conditions
12:54 AM 66.9 °F 61.0 °F 81% 30.06 in 10.0 mi North 5.8 mph - N/A   Clear
1:54 AM 70.0 °F 61.0 °F 73% 30.06 in 10.0 mi NE 9.2 mph - N/A   Overcast
2:54 AM 69.1 °F 64.0 °F 84% 30.04 in 5.0 mi North 9.2 mph - 0.00 in Rain Light Rain
3:54 AM - - N/A% 30.02 in 10.0 mi NE 6.9 mph - 0.00 in   Overcast
9:54 AM 71.1 °F 64.0 °F 78% 30.10 in 10.0 mi NE 11.5 mph 19.6 mph N/A   Scattered Clouds
10:54 AM 77.0 °F 63.0 °F 62% 30.09 in 10.0 mi NE 9.2 mph - N/A   Mostly Cloudy
11:54 AM 73.9 °F 64.0 °F 71% 30.08 in 10.0 mi NNE 6.9 mph - 0.00 in   Mostly Cloudy
12:46 PM 73.4 °F 64.4 °F 73% 30.05 in 10.0 mi SSE 4.6 mph - 0.00 in Rain Light Rain
12:54 PM 75.0 °F 64.9 °F 71% 30.06 in 10.0 mi South 9.2 mph - 0.00 in   Scattered Clouds
1:54 PM 77.0 °F 61.0 °F 58% 30.04 in 10.0 mi South 9.2 mph - N/A   Mostly Cloudy
2:54 PM 75.9 °F 63.0 °F 64% 30.04 in 10.0 mi SSE 8.1 mph - N/A   Overcast
3:14 PM 75.2 °F 64.4 °F 69% 30.03 in 10.0 mi West 8.1 mph - N/A   Overcast
3:28 PM 75.2 °F 64.4 °F 69% 30.03 in 10.0 mi West 8.1 mph - N/A   Overcast
3:54 PM 73.9 °F 64.0 °F 71% 30.03 in 10.0 mi West 6.9 mph - N/A   Overcast
4:54 PM 75.0 °F 63.0 °F 66% 30.05 in 10.0 mi WNW 6.9 mph - N/A   Mostly Cloudy
5:54 PM 73.0 °F 62.1 °F 68% 30.06 in 10.0 mi Calm Calm - N/A   Clear
6:54 PM 66.9 °F 61.0 °F 81% 30.05 in 10.0 mi Calm Calm - N/A   Clear
7:54 PM - - N/A% 30.07 in 10.0 mi Calm Calm - N/A   Clear
8:54 PM - - N/A% 30.07 in 10.0 mi Calm Calm - N/A   Clear
9:54 PM - - N/A% 30.07 in 10.0 mi West 3.5 mph - N/A   Clear
10:54 PM - - N/A% 30.08 in 10.0 mi ENE 8.1 mph - N/A   Clear
11:54 PM - - N/A% 30.08 in 10.0 mi ENE 3.5 mph - N/A   Clear